Regional Weather Roundup
Issued by NWS

Home | Current Version | Previous Version | Text Only | Print | Product List | Glossary Off
Versions: 1 2 3 4 5 6 7 8 9 10 11 12 13 14 15 16 17 18 19 20 21 22 23 24 25 26 27 28 29 30 31 32 33 34 35 36 37 38 39 40 41 42 43 44 45 46 47 48 49 50

000
ASUS43 KOAX 290910
RWRNE

WEATHER ROUNDUP FOR NEBRASKA
NATIONAL WEATHER SERVICE OMAHA NE
400 AM CDT FRI AUG 29 2014

NOTES: SATELLITE DATA IS BEING USED TO AUGMENT CLOUD COVER ABOVE
       12000 FEET.
       "FAIR" INDICATES FEW OR NO CLOUDS BELOW 12,000 FEET WITH NO
       SIGNIFICANT WEATHER AND/OR OBSTRUCTIONS TO VISIBILITY.

  * THESE STATIONS DO NOT REPORT WEATHER SUCH AS RAIN...SNOW OR FOG.

NEZ001>004-019>022-054>056-291000-
NEBRASKA PANHANDLE

CITY           SKY/WX    TMP DP  RH WIND       PRES   REMARKS
SCOTTSBLUFF    CLEAR     50  49  96 N5        29.98F
ALLIANCE       CLEAR     50  48  93 W6        29.95F
CHADRON        CLEAR     54  52  93 W5        29.92S
KIMBALL        CLEAR     51  48  91 W7        30.02S
SIDNEY         CLEAR     55  49  80 NW12      30.01F
$$

NEZ057>060-069>072-079>082-291000-
SOUTHWEST NEBRASKA

CITY           SKY/WX    TMP DP  RH WIND       PRES   REMARKS
NORTH PLATTE   CLEAR     57  54  89 CALM      29.91S
IMPERIAL       CLEAR     57  53  86 NW8       29.95R
LEXINGTON      PTCLDY    62  60  94 NW6       29.88R
MCCOOK         PTCLDY    59  56  89 W7        29.90F
OGALLALA       CLEAR     51  50  97 W5        29.94S
$$

NEZ005>010-023>029-035>040-094-291000-
NORTH CENTRAL NEBRASKA

CITY           SKY/WX    TMP DP  RH WIND       PRES   REMARKS
VALENTINE      PTCLDY    60  59  96 W3        29.87S
AINSWORTH      PTCLDY    60  60  97 W7        29.87S
BROKEN BOW     PTCLDY    62  59  90 CALM      29.87S
O`NEILL        MOCLDY    64  63  97 W3        29.83R
ORD            MOCLDY    63  62  97 NW8       29.83S
THEDFORD       PTCLDY    56  55  95 CALM      29.91S
$$

NEZ041-046>049-061>064-073>077-083>087-291000-
SOUTH CENTRAL NEBRASKA

CITY           SKY/WX    TMP DP  RH WIND       PRES   REMARKS
GRAND ISLAND   CLOUDY    67  64  90 NW5       29.82S
AURORA         CLOUDY    68  67  97 S5        29.82R
HASTINGS       CLOUDY    67  62  84 SE3       29.82S
HEBRON         LGT RAIN  69  65  85 SW9       29.81F
HOLDREGE       CLOUDY    63  61  93 CALM      29.84F
KEARNEY *      CLOUDY    64  63  94 W8        29.84F
YORK           CLOUDY    68 N/A N/A S7        29.82S
$$

NEZ011>018-030>034-042>045-291000-
NORTHEAST NEBRASKA

CITY           SKY/WX    TMP DP  RH WIND       PRES   REMARKS
NORFOLK        MOCLDY    69  67  93 CALM      29.80R
ALBION         CLOUDY    65  63  94 NW6       29.82R
BLAIR          MOCLDY    73  67  81 S8        29.80F
FREMONT        MOCLDY    73  69  86 S6        29.81S
TEKAMAH        MOCLDY    72  70  93 SE8       29.79F
WAYNE          MOCLDY    70  67  92 S9        29.78F
$$

NEZ050>053-065>068-078-088>093-291000-
SOUTHEAST NEBRASKA

CITY           SKY/WX    TMP DP  RH WIND       PRES   REMARKS
LINCOLN        MOCLDY    71  67  87 S3        29.81F
OMAHA EPPLEY   CLOUDY    72  68  87 SE7       29.80F
BEATRICE       MOCLDY    71  67  86 S7        29.82F
FALLS CITY     MOCLDY    74  68  81 S5        29.80F
NEBRASKA CITY  MOCLDY    70  70 100 CALM      29.82S FOG
PLATTSMOUTH    MOCLDY    72  69  92 E3        29.81F FOG
$$

NEZ044-045-051>053-067-291000-
OMAHA AREA

CITY           SKY/WX    TMP DP  RH WIND       PRES   REMARKS
OMAHA EPPLEY   CLOUDY    72  68  87 SE7       29.80F
BLAIR          MOCLDY    73  67  81 S8        29.80F
FREMONT        MOCLDY    73  69  86 S6        29.81S
MILLARD        MOCLDY    71  69  90 CALM      29.81S
OFFUTT AFB     MOCLDY    70  70 100 E2        29.80F
PLATTSMOUTH    MOCLDY    72  69  92 E3        29.81F FOG
WAHOO          DRIZZLE   71  67  86 S8        29.80F
$$



USA.gov is the U.S. government's official web portal to all federal, state and local government web resources and services.